Bryce Canyon, UT

10:55 PM MDT on October 18, 2017 (GMT -0600)
Bryce Canyon

Weather History for KBCE - September, 2013

Change the Weather History Date:

Wednesday, September 11, 2013

  Actual Average Record
Temperature  
Mean Temperature 51 °F -  
Max Temperature 55 °F 70 °F 84 °F (2015)
Min Temperature 48 °F 40 °F 26 °F (1986)
Degree Days  
Heating Degree Days 14    
Growing Degree Days 1 (Base 50)    
Moisture  
Dew Point 51 °F    
Average Humidity 96    
Maximum Humidity 100    
Minimum Humidity 92    
Precipitation  
Precipitation 0.48 in - - ()
Sea Level Pressure  
Sea Level Pressure 30.14 in    
Wind  
Wind Speed 4 mph (East)    
Max Wind Speed 12 mph    
Max Gust Speed -    
Visibility 8 miles    
Events Rain    
Averages and records for this station are not official NWS values.
T = Trace of Precipitation, MM = Missing Value Source: NWS Daily Summary

Daily Weather History Graph

Daily Weather History Graph

Search for Another Location

Airport or City:

Trip Planner

Search our weather history database for the weather conditions in past years. The results will help you decide how hot, cold, wet, or windy it might be!

Date:

Astronomy

Sep. 11, 2013 Rise Set
Actual Time 7:07 AM MDT 7:42 PM MDT
Civil Twilight 6:40 AM MDT 8:08 PM MDT
Nautical Twilight 6:09 AM MDT 8:39 PM MDT
Astronomical Twilight 5:37 AM MDT 9:11 PM MDT
Moon 1:32 PM MDT (9/11) 11:48 PM MDT (9/11)
Length of Visible Light 13h 27m
Length of Day
12h 34m
Waxing Crescent, 39% of the Moon is Illuminated
Sep 11
Waxing Crescent
Sep 12
First Quarter
Sep 19
Full
Sep 26
Last Quarter
Oct 4
New

Hourly Weather History & Observations

Time (MDT) Temp. Dew Point Humidity Pressure Visibility Wind Dir Wind Speed Gust Speed Precip Events Conditions
12:53 AM 51.1 °F 48.9 °F 92% 29.95 in 10.0 mi Calm Calm - N/A   Overcast
1:53 AM 51.1 °F 48.9 °F 92% 29.95 in 10.0 mi Calm Calm - N/A   Overcast
2:00 AM 51.8 °F 50.0 °F 94% 30.22 in 10.0 mi Calm Calm - N/A   Overcast
2:07 AM 51.8 °F 50.0 °F 94% 30.22 in 10.0 mi ENE 3.5 mph - N/A   Overcast
2:53 AM 51.1 °F 50.0 °F 96% 29.93 in 10.0 mi ENE 6.9 mph - N/A   Overcast
3:28 AM 51.8 °F 50.0 °F 94% 30.21 in 10.0 mi NE 4.6 mph - N/A   Overcast
3:53 AM 51.1 °F 50.0 °F 96% 29.92 in 8.0 mi NE 3.5 mph - 0.02 in Rain Rain
4:53 AM 50.0 °F 50.0 °F 100% 29.92 in 10.0 mi Calm Calm - 0.05 in Rain Light Rain
5:46 AM 50.0 °F 48.2 °F 94% 30.20 in 10.0 mi NE 3.5 mph - 0.00 in   Overcast
5:53 AM 50.0 °F 48.9 °F 96% 29.92 in 10.0 mi NE 4.6 mph - 0.00 in   Overcast
6:04 AM 50.0 °F 50.0 °F 100% 30.20 in 10.0 mi NE 5.8 mph - N/A   Overcast
6:46 AM 50.0 °F 48.2 °F 94% 30.22 in 5.0 mi NE 4.6 mph - 0.03 in Rain Rain
6:53 AM 50.0 °F 48.9 °F 96% 29.94 in 3.0 mi NE 5.8 mph - 0.06 in Rain Heavy Rain
7:05 AM 50.0 °F 48.2 °F 94% 30.22 in 2.5 mi NE 4.6 mph - 0.07 in Rain Heavy Rain
7:12 AM 50.0 °F 48.2 °F 94% 30.22 in 5.0 mi NE 4.6 mph - 0.08 in Rain Light Rain
7:21 AM 50.0 °F 48.2 °F 94% 30.22 in 10.0 mi NE 5.8 mph - 0.08 in   Overcast
7:53 AM 50.0 °F 48.9 °F 96% 29.96 in 10.0 mi NE 8.1 mph - 0.08 in   Overcast
8:53 AM 51.1 °F 50.0 °F 96% 29.96 in 6.0 mi ENE 8.1 mph - 0.00 in Rain Light Rain
9:15 AM 51.8 °F 50.0 °F 94% 30.24 in 10.0 mi NE 5.8 mph - 0.00 in   Overcast
9:53 AM 52.0 °F 51.1 °F 97% 29.97 in 7.0 mi NE 6.9 mph - 0.01 in Rain Light Rain
10:06 AM 51.8 °F 51.8 °F 100% 30.25 in 2.5 mi East 5.8 mph - 0.01 in Rain Light Rain
10:13 AM 51.8 °F 51.8 °F 100% 30.25 in 9.0 mi ESE 3.5 mph - 0.01 in Rain Light Rain
10:53 AM 53.1 °F 51.1 °F 93% 29.99 in 4.0 mi ENE 4.6 mph - 0.02 in Rain Light Rain
11:03 AM 51.8 °F 51.8 °F 100% 30.26 in 2.5 mi East 5.8 mph - 0.02 in Rain Rain
11:17 AM 51.8 °F 51.8 °F 100% 30.25 in 1.5 mi NE 6.9 mph - 0.06 in Rain Heavy Rain
11:23 AM 53.6 °F 51.8 °F 94% 30.26 in 3.0 mi NE 4.6 mph - 0.07 in Rain Light Rain
11:53 AM 54.0 °F 52.0 °F 93% 29.98 in 10.0 mi East 8.1 mph - 0.07 in Rain Light Rain
12:10 PM 53.6 °F 51.8 °F 94% 30.25 in 10.0 mi ENE 6.9 mph - 0.00 in Rain Light Rain
12:18 PM 53.6 °F 51.8 °F 94% 30.25 in 10.0 mi NE 8.1 mph - 0.00 in Rain Light Rain
12:26 PM 53.6 °F 51.8 °F 94% 30.25 in 10.0 mi ENE 8.1 mph - 0.00 in Rain Light Rain
12:45 PM 53.6 °F 51.8 °F 94% 30.25 in 4.0 mi SE 5.8 mph - 0.02 in Rain Light Rain
12:53 PM 54.0 °F 53.1 °F 97% 29.98 in 4.0 mi SE 8.1 mph - 0.03 in Rain Light Rain
1:53 PM 53.1 °F 52.0 °F 96% 29.99 in 3.0 mi SE 11.5 mph - 0.03 in Rain Rain
2:01 PM 53.6 °F 51.8 °F 94% 30.25 in 4.0 mi ESE 10.4 mph - 0.00 in Rain Light Rain
2:15 PM 53.6 °F 51.8 °F 94% 30.25 in 7.0 mi ESE 8.1 mph - 0.01 in Rain Light Rain
2:48 PM 53.6 °F 51.8 °F 94% 30.25 in 10.0 mi SE 8.1 mph - 0.03 in Rain Light Rain
2:53 PM 53.1 °F 52.0 °F 96% 29.99 in 8.0 mi SSE 4.6 mph - 0.03 in Rain Light Rain
3:39 PM 53.6 °F 51.8 °F 94% 30.25 in 8.0 mi SSW 4.6 mph - 0.00 in Rain Light Rain
3:53 PM 54.0 °F 52.0 °F 93% 29.98 in 2.5 mi Variable 4.6 mph - 0.04 in Rain Light Rain
3:55 PM 53.6 °F 51.8 °F 94% 30.25 in 3.0 mi SSE 5.8 mph - 0.00 in Rain Light Rain
4:12 PM 53.6 °F 53.6 °F 100% 30.25 in 10.0 mi SSE 3.5 mph - 0.00 in Rain Light Rain
4:19 PM 53.6 °F 51.8 °F 94% 30.25 in 9.0 mi SE 6.9 mph - 0.01 in Rain Light Rain
4:49 PM 53.6 °F 51.8 °F 94% 30.24 in 10.0 mi Calm Calm - 0.03 in Rain Light Rain
4:53 PM 53.1 °F 52.0 °F 96% 29.97 in 10.0 mi NE 4.6 mph - 0.03 in Rain Light Rain
5:34 PM 53.6 °F 51.8 °F 94% 30.25 in 10.0 mi SSW 4.6 mph - 0.00 in Rain Light Rain
5:53 PM 53.1 °F 51.1 °F 93% 29.98 in 10.0 mi ESE 4.6 mph - 0.00 in   Overcast
6:22 PM 51.8 °F 51.8 °F 100% 30.24 in 10.0 mi SSE 8.1 mph - N/A   Scattered Clouds
6:34 PM 51.8 °F 51.8 °F 100% 30.25 in 10.0 mi ESE 8.1 mph - N/A   Mostly Cloudy
6:42 PM 51.8 °F 51.8 °F 100% 30.25 in 10.0 mi SE 5.8 mph - N/A   Overcast
6:49 PM 51.8 °F 51.8 °F 100% 30.25 in 10.0 mi ESE 5.8 mph - N/A   Overcast
6:53 PM 52.0 °F 51.1 °F 97% 29.99 in 10.0 mi ESE 4.6 mph - N/A   Overcast
7:05 PM 51.8 °F 51.8 °F 100% 30.25 in 10.0 mi ESE 3.5 mph - N/A   Mostly Cloudy
7:12 PM 51.8 °F 51.8 °F 100% 30.25 in 10.0 mi ESE 5.8 mph - N/A   Mostly Cloudy
7:44 PM 51.8 °F 50.0 °F 94% 30.25 in 10.0 mi SE 9.2 mph - N/A   Scattered Clouds
7:53 PM 51.1 °F 51.1 °F 100% 29.99 in 10.0 mi SSE 6.9 mph - N/A   Mostly Cloudy
8:07 PM 51.8 °F 51.8 °F 100% 30.25 in 10.0 mi SE 5.8 mph - N/A   Overcast
8:41 PM 51.8 °F 50.0 °F 94% 30.26 in 10.0 mi Calm Calm - N/A   Mostly Cloudy
8:53 PM 48.9 °F 48.0 °F 97% 30.01 in 10.0 mi SE 5.8 mph - N/A   Scattered Clouds
9:39 PM 50.0 °F 50.0 °F 100% 30.26 in 10.0 mi SSE 4.6 mph - 0.01 in   Mostly Cloudy
9:46 PM 51.8 °F 50.0 °F 94% 30.26 in 10.0 mi SSE 5.8 mph - 0.01 in   Mostly Cloudy
9:53 PM 51.1 °F 50.0 °F 96% 30.00 in 10.0 mi SE 5.8 mph - 0.01 in   Overcast
10:33 PM 50.0 °F 50.0 °F 100% 30.27 in 10.0 mi ESE 4.6 mph - N/A   Mostly Cloudy
10:53 PM 51.1 °F 50.0 °F 96% 30.00 in 10.0 mi East 3.5 mph - N/A   Overcast
11:04 PM 51.8 °F 50.0 °F 94% 30.27 in 10.0 mi East 5.8 mph - N/A   Overcast
11:53 PM 50.0 °F 50.0 °F 100% 30.01 in 6.0 mi SE 9.2 mph - 0.00 in   Overcast